Location: Arpaise
(41.0333°N, 14.7333°E)
Time: 21:14:14
(UTC+00:00)

Cosmos 846 Rocket - Pass Details

Date: 21 January 2021
Orbit: 948 x 991 km, 82.9° (Epoch: 06 March)

Event Time Altitude Azimuth Distance (km) Brightness Sun altitude
Rises 18:53:19 0° 200° (SSW) 3,670 8.7 -31.6°
Reaches altitude 10° 18:55:55 10° 206° (SSW) 2,721 8.1 -32.1°
Maximum altitude 19:01:58 52° 281° (WNW) 1,196 6.1 -33.2°
Enters shadow 19:06:23 19° 352° (N) 2,147 7.3 -34.0°
Exits shadow 19:10:35 - 3° (N) 3,649 8.5 -34.8°
Sets 19:10:35 0° 3° (N) 3,653 8.5 -34.8°
